Date String (YYYY-MM-DD hh:mm:ss) UTC,Instrument flags,Ambient pressure (hPa),Sample flow (lpm),Bypass flow (lpm),Sample temperature (°C),Ambient temperature (°C),ASC tube jacket temperature (°C),LED temperature (°C),Box temperature (°C),Sample RH (%),Mass concentration (μg/m³),Mass concentration (μg/m³)
DateTimeUTC,F1_M11,P_M11,Q1_M11,Q2_M11,T1_M11,T2_M11,T3_M11,T4_M11,T5_M11,U1_M11,X0_M11,X2_M11
2021-08-15 16:00:00,,0830.6,5.00,0.00,29.6,27.8,00.0,38.7,31.3,27.1,0017.84,0008.77
2021-08-15 16:01:00,,0830.6,4.99,0.00,29.6,28.1,00.0,38.7,31.4,27.5,0017.35,0008.74
2021-08-15 16:02:00,,0830.6,5.01,0.00,29.7,28.3,00.0,38.7,31.5,26.1,0017.09,0008.69
2021-08-15 16:03:00,,0830.6,4.99,0.00,29.7,28.5,00.0,38.7,31.6,25.5,0016.94,0008.73
2021-08-15 16:04:00,,0830.6,5.02,0.00,29.7,28.7,00.0,38.7,31.6,25.3,0016.08,0008.72
2021-08-15 16:05:00,,0830.6,4.99,0.00,29.7,27.8,00.0,38.7,31.3,25.3,0015.89,0008.73
2021-08-15 16:06:00,,0830.6,5.01,0.00,29.6,26.5,00.0,38.7,30.9,26.0,0014.87,0008.75
2021-08-15 16:07:00,,0830.6,5.01,0.00,29.5,26.5,00.0,38.7,30.9,25.2,0013.55,0008.73
2021-08-15 16:08:00,,0830.6,4.99,0.00,29.5,26.9,00.0,38.7,31.1,25.6,0013.16,0008.67
2021-08-15 16:09:00,,0830.6,5.00,0.00,29.5,27.3,00.0,38.6,31.2,25.2,0014.22,0008.63
2021-08-15 16:10:00,,0830.6,5.00,0.00,29.5,27.6,00.0,38.6,31.3,25.6,0014.67,0008.66
2021-08-15 16:11:00,,0830.7,5.00,0.00,29.5,28.0,00.0,38.6,31.3,25.2,0014.79,0008.63
2021-08-15 16:12:00,,0830.6,5.00,0.00,29.6,28.2,00.0,38.6,31.4,24.8,0015.46,0008.58
2021-08-15 16:13:00,,0830.7,5.00,0.00,29.6,28.4,00.0,38.6,31.5,24.8,0015.24,0008.58
2021-08-15 16:14:00,,0830.7,5.00,0.00,29.7,28.6,00.0,38.6,31.6,24.6,0015.49,0008.51
2021-08-15 16:15:00,,0830.7,5.00,0.00,29.7,28.8,00.0,38.7,31.6,24.2,0015.65,0008.47
2021-08-15 16:16:00,,0830.8,5.01,0.00,29.7,28.3,00.0,38.7,31.5,23.9,0015.57,0008.42
2021-08-15 16:17:00,,0830.7,4.99,0.00,29.6,26.7,00.0,38.7,31.0,23.3,0015.67,0008.41
2021-08-15 16:18:00,,0830.7,4.99,0.00,29.5,26.5,00.0,38.7,30.9,23.2,0015.76,0008.38
2021-08-15 16:19:00,,0830.7,5.00,0.00,29.5,26.9,00.0,38.6,31.1,23.5,0015.51,0008.37
2021-08-15 16:20:00,,0830.8,5.00,0.00,29.5,27.3,00.0,38.6,31.2,23.7,0014.33,0008.32
2021-08-15 16:21:00,,0830.8,5.01,0.00,29.5,27.6,00.0,38.6,31.3,23.3,0013.96,0008.25
2021-08-15 16:22:00,,0830.8,5.01,0.00,29.6,28.0,00.0,38.6,31.4,22.8,0014.09,0008.28
2021-08-15 16:23:00,,0830.8,5.00,0.00,29.6,28.2,00.0,38.6,31.4,22.3,0013.85,0008.28
2021-08-15 16:24:00,,0830.8,4.99,0.00,29.6,28.5,00.0,38.6,31.5,22.3,0013.82,0008.27
2021-08-15 16:25:00,,0830.7,5.00,0.00,29.7,28.6,00.0,38.6,31.6,23.1,0013.45,0008.26
2021-08-15 16:26:00,,0830.7,5.01,0.00,29.7,28.3,00.0,38.7,31.5,22.3,0013.02,0008.20
2021-08-15 16:27:00,,0830.7,4.99,0.00,29.6,26.7,00.0,38.6,31.0,22.3,0013.01,0008.19
2021-08-15 16:28:00,,0830.7,5.01,0.00,29.5,26.3,00.0,38.6,30.8,23.0,0012.88,0008.16
2021-08-15 16:29:00,,0830.7,5.00,0.00,29.5,26.8,00.0,38.6,31.0,23.8,0013.10,0008.19
2021-08-15 16:30:00,,0830.7,5.01,0.00,29.4,27.1,00.0,38.6,31.1,23.4,0013.47,0008.21
2021-08-15 16:31:00,,0830.7,5.01,0.00,29.4,27.5,00.0,38.5,31.2,23.1,0013.65,0008.24
2021-08-15 16:32:00,,0830.7,5.00,0.00,29.5,27.8,00.0,38.5,31.3,23.6,0014.13,0008.27
2021-08-15 16:33:00,,0830.8,5.00,0.00,29.5,28.1,00.0,38.5,31.4,23.4,0014.67,0008.21
2021-08-15 16:34:00,,0830.7,5.00,0.00,29.6,28.4,00.0,38.6,31.5,23.5,0014.79,0008.20
2021-08-15 16:35:00,,0830.7,5.00,0.00,29.6,28.6,00.0,38.6,31.5,23.2,0014.56,0008.13
2021-08-15 16:36:00,,0830.7,5.00,0.00,29.7,28.3,00.0,38.6,31.5,23.0,0015.18,0008.14
2021-08-15 16:37:00,,0830.7,5.01,0.00,29.6,26.9,00.0,38.6,31.0,22.2,0015.32,0008.15
2021-08-15 16:38:00,,0830.7,4.99,0.00,29.5,26.3,00.0,38.6,30.8,22.3,0015.23,0008.14
2021-08-15 16:39:00,,0830.8,5.00,0.00,29.4,26.7,00.0,38.6,30.9,22.8,0015.14,0008.09
2021-08-15 16:40:00,,0830.8,5.01,0.00,29.4,27.0,00.0,38.5,31.0,22.7,0014.81,0008.03
2021-08-15 16:41:00,,0830.8,4.99,0.00,29.4,27.4,00.0,38.5,31.1,22.7,0014.36,0007.99
2021-08-15 16:42:00,,0830.7,5.00,0.00,29.4,27.8,00.0,38.5,31.2,23.2,0014.18,0007.97
2021-08-15 16:43:00,,0830.8,5.00,0.00,29.5,28.1,00.0,38.5,31.3,24.2,0014.09,0007.95
2021-08-15 16:44:00,,0830.7,4.99,0.00,29.5,28.3,00.0,38.5,31.4,24.2,0013.34,0007.97
2021-08-15 16:45:00,,0830.7,5.00,0.00,29.6,28.5,00.0,38.5,31.5,24.6,0012.57,0007.98
2021-08-15 16:46:00,,0830.8,5.00,0.00,29.6,28.4,00.0,38.6,31.4,24.3,0013.10,0008.05
2021-08-15 16:47:00,,0830.8,4.99,0.00,29.6,27.0,00.0,38.5,31.0,23.7,0012.61,0008.08
2021-08-15 16:48:00,,0830.8,5.01,0.00,29.4,26.2,00.0,38.5,30.8,23.8,0012.67,0008.15
2021-08-15 16:49:00,,0830.7,5.00,0.00,29.4,26.5,00.0,38.5,30.9,24.1,0013.24,0008.25
2021-08-15 16:50:00,,0830.7,5.00,0.00,29.4,26.9,00.0,38.5,31.0,24.4,0014.02,0008.33
2021-08-15 16:51:00,,0830.7,5.01,0.00,29.4,27.3,00.0,38.5,31.1,24.8,0014.36,0008.39
2021-08-15 16:52:00,,0830.7,4.98,0.00,29.4,27.7,00.0,38.4,31.2,24.4,0014.38,0008.40
2021-08-15 16:53:00,,0830.7,5.01,0.00,29.4,28.0,00.0,38.4,31.3,24.8,0014.53,0008.43
2021-08-15 16:54:00,,0830.7,4.99,0.00,29.5,28.2,00.0,38.5,31.4,24.8,0014.04,0008.43
2021-08-15 16:55:00,,0830.7,5.00,0.00,29.5,28.5,00.0,38.5,31.4,24.4,0014.37,0008.44
2021-08-15 16:56:00,,0830.7,5.00,0.00,29.6,28.5,00.0,38.5,31.5,23.9,0015.23,0008.45
2021-08-15 16:57:00,,0830.7,5.00,0.00,29.5,27.2,00.0,38.5,31.1,23.5,0014.94,0008.46
2021-08-15 16:58:00,,0830.6,4.99,0.00,29.4,26.1,00.0,38.5,30.7,23.2,0014.84,0008.43
2021-08-15 16:59:00,,0830.7,5.01,0.00,29.3,26.4,00.0,38.5,30.8,23.9,0014.63,0008.37
